Meteo Giornale » Osservazioni meteo Francia » Le Luc

ore: 04:00 - Osservazioni Meteo Le Luc
Lat. 43° 23' N Lon. 6° 23' E Alt. 80 metri s.l.m.

coperto_pioggia Europe/Paris

21 °C

Pioggia Debole

Temp. 24 Ore

17 °C

30 °C

Ovest

16.7 Km/h

Dew point 17 °C

Umidità 77 %

Visibilità  10 Km

Il sole sorge alle ore 07:17

Il sole tramonta alle ore 19:39

Data e Ora Cielo e Fenomeni T °C DP °C Um. % Pres. hPa Vis. km Vento km/h
Oggi h: 04:00 coperto_pioggia Pioggia Debole 21 17 77 1013 10 O 16.7
Oggi h: 03:30 sereno Sereno 20 16 77 1013 10 O 13
Oggi h: 03:00 sereno Sereno 20 16 77 1012 10 N 1.8
Oggi h: 02:30 sereno Sereno 20 16 77 1012 10 N 3.7
Oggi h: 02:00 sereno Sereno 20 16 77 1012 10 N 5.5
Oggi h: 01:30 sereno Sereno 21 16 73 1012 10 N 5.5
Oggi h: 01:00 sereno Sereno 21 16 73 1012 10 N 3.7
Oggi h: 00:30 sereno Sereno 21 16 73 1013 10 N 5.5
Oggi h: 00:00 sereno Sereno 22 17 73 1013 10 O 9.3
Ieri h: 23:30 sereno Sereno 21 16 73 1013 10 N 3.7
Ieri h: 23:00 sereno Sereno 22 16 68 1013 10 O 9.3
Ieri h: 22:30 sereno Sereno 21 17 77 1013 10 N 5.5
Ieri h: 22:00 sereno Sereno 22 17 73 1013 10 N 3.7
Ieri h: 21:30 sereno Sereno 22 17 73 1012 10 N 3.7
Ieri h: 21:00 sereno Sereno 23 17 68 1012 10 O 7.4
Ieri h: 20:00 sereno Sereno 25 16 57 1011 10 O 11.1
Ieri h: 19:30 sereno Sereno 26 16 54 1011 10 O/SO 11.1
Ieri h: 19:00 sereno Sereno 27 16 50 1010 10 O/SO 13
Ieri h: 18:30 sereno Sereno 27 16 50 1011 10 O/SO 13
Ieri h: 18:00 sereno Sereno 28 16 48 1011 10 O/SO 18.5
Ieri h: 17:30 sereno Sereno 28 16 48 1010 10 O/SO 18.5
Ieri h: 17:00 sereno Sereno 29 16 45 1010 10 O/SO 16.7
Ieri h: 16:30 sereno Sereno 29 16 45 1011 10 O/SO 16.7
Ieri h: 16:00 sereno Sereno 29 17 48 1011 10 O/SO 16.7
Ieri h: 15:30 sereno Sereno 29 16 45 1011 10 O/SO 18.5
Ieri h: 14:30 sereno Sereno 30 13 35 1011 10 N 11.1
Ieri h: 13:30 sereno Sereno 29 14 39 1012 10 O/NO 11.1
Ieri h: 12:30 sereno Sereno 28 15 45 1012 10 O 9.3
Ieri h: 11:30 sereno Sereno 26 15 50 1013 10 O 13
Ieri h: 11:00 sereno Sereno 25 15 53 1013 10 O 9.3
Ieri h: 10:30 sereno Sereno 24 16 60 1013 10 O/NO 11.1
Ieri h: 09:30 sereno Sereno 22 17 73 1012 10 N 5.5
Ieri h: 09:00 sereno Sereno 20 17 82 1013 10 O/SO 7.4
Ieri h: 08:30 sereno Sereno 19 17 88 1013 10 N 3.7
Ieri h: 08:00 sereno Sereno 18 16 88 1013 10 N 3.7
Ieri h: 07:30 sereno Sereno 17 15 88 1012 10 N 3.7
Ieri h: 07:00 sereno Sereno 17 14 82 1012 10 S/SO 9.3
Ieri h: 06:30 sereno Sereno 17 16 93 1012 10 O/SO 11.1
Ieri h: 06:00 sereno Sereno 17 15 88 1012 10 N 5.5
Ieri h: 05:30 sereno Sereno 17 16 93 1012 10 N 5.5
Ieri h: 05:00 sereno Sereno 17 15 88 1013 10 O/SO 9.3